ASA1392 KSAN-KPDX

Flight info

Callsign ASA1392
Flight time 2h 9m
Altitude 38000
Route PADRZ2 EHF DNOLD GALLO TMBRS4
Aircraft B739/M-SDE2E3FGHIRWXY/LB1

Departure

Time 2026-05-05 05:42
Airport San Diego International Airport (KSAN)

Arrival

Time 2026-05-05 07:52
Airport Portland International Airport (KPDX)
Time Latitude Longitude Altitude Speed Heading
2026-05-05 05:19 32.73252 -117.20073 28 ft 0 kts 247°
2026-05-05 05:31 32.73256 -117.20061 27 ft 4 kts 250°
2026-05-05 05:32 32.73264 -117.20030 26 ft 4 kts 264°
2026-05-05 05:32 32.73262 -117.20001 24 ft 4 kts 307°
2026-05-05 05:32 32.73252 -117.19992 29 ft 0 kts
2026-05-05 05:37 32.73268 -117.19991 25 ft 0 kts
2026-05-05 05:37 32.73321 -117.19988 27 ft 0 kts
2026-05-05 05:37 32.73335 -117.19986 27 ft 11 kts
2026-05-05 05:38 32.73459 -117.19949 27 ft 20 kts 35°
2026-05-05 05:38 32.73460 -117.19807 29 ft 21 kts 107°
2026-05-05 05:38 32.73411 -117.19613 26 ft 28 kts 107°
2026-05-05 05:38 32.73351 -117.19372 25 ft 34 kts 105°
2026-05-05 05:39 32.73282 -117.19087 26 ft 36 kts 106°
2026-05-05 05:39 32.73214 -117.18806 27 ft 34 kts 106°
2026-05-05 05:39 32.73152 -117.18552 33 ft 31 kts 106°
2026-05-05 05:39 32.73095 -117.18313 33 ft 29 kts 105°
2026-05-05 05:40 32.73060 -117.18165 27 ft 12 kts 106°
2026-05-05 05:40 32.73056 -117.18147 28 ft 0 kts 105°
2026-05-05 05:40 32.73048 -117.18117 26 ft 11 kts 106°
2026-05-05 05:40 32.73014 -117.17978 28 ft 24 kts 107°
2026-05-05 05:41 32.72980 -117.17839 26 ft 28 kts 107°
2026-05-05 05:41 32.72956 -117.17674 26 ft 14 kts 77°
2026-05-05 05:41 32.72983 -117.17620 29 ft 7 kts 40°
2026-05-05 05:41 32.73030 -117.17646 28 ft 1 kts 289°
2026-05-05 05:42 32.73051 -117.17725 29 ft 42 kts 287°
2026-05-05 05:42 32.73209 -117.18372 31 ft 118 kts 286°
2026-05-05 05:42 32.73485 -117.19541 123 ft 165 kts 287°
2026-05-05 05:42 32.73912 -117.20874 766 ft 180 kts 291°
2026-05-05 05:43 32.74523 -117.22237 1466 ft 194 kts 298°
2026-05-05 05:43 32.75268 -117.23616 2187 ft 202 kts 300°
2026-05-05 05:43 32.76056 -117.25026 2975 ft 207 kts 300°
2026-05-05 05:43 32.76866 -117.26456 3791 ft 209 kts 301°
2026-05-05 05:44 32.77683 -117.27888 4620 ft 210 kts 301°
2026-05-05 05:44 32.78512 -117.29339 5393 ft 214 kts 302°
2026-05-05 05:44 32.79364 -117.30829 6117 ft 223 kts 301°
2026-05-05 05:44 32.80269 -117.32363 6854 ft 230 kts 304°
2026-05-05 05:45 32.81250 -117.33891 7632 ft 234 kts 304°
2026-05-05 05:45 32.82254 -117.35434 8453 ft 237 kts 304°
2026-05-05 05:45 32.83264 -117.36985 9287 ft 238 kts 304°
2026-05-05 05:45 32.84276 -117.38544 10127 ft 238 kts 304°
2026-05-05 05:46 32.85284 -117.40099 10877 ft 237 kts 303°
2026-05-05 05:46 32.86288 -117.41653 11618 ft 236 kts 303°
2026-05-05 05:46 32.87377 -117.43361 10658 ft 301 kts 304°
2026-05-05 05:46 32.88809 -117.45594 9943 ft 359 kts 305°
2026-05-05 05:47 32.90322 -117.47927 10807 ft 350 kts 305°
2026-05-05 05:47 32.91785 -117.50189 11738 ft 343 kts 304°
2026-05-05 05:47 32.93240 -117.52450 12297 ft 347 kts 304°
2026-05-05 05:47 32.94720 -117.54757 12796 ft 351 kts 304°
2026-05-05 05:48 32.96210 -117.57082 13356 ft 355 kts 304°
2026-05-05 05:48 32.97713 -117.59426 13903 ft 357 kts 304°
2026-05-05 05:48 32.99227 -117.61790 14396 ft 360 kts 303°
2026-05-05 05:48 33.00750 -117.64169 14901 ft 363 kts 304°
2026-05-05 05:49 33.02286 -117.66570 15358 ft 366 kts 303°
2026-05-05 05:49 33.03837 -117.68994 15834 ft 369 kts 303°
2026-05-05 05:49 33.05396 -117.71435 16319 ft 371 kts 303°
2026-05-05 05:49 33.07029 -117.73793 16765 ft 378 kts 311°
2026-05-05 05:50 33.09023 -117.75875 17221 ft 384 kts 316°
2026-05-05 05:50 33.11104 -117.77890 17662 ft 387 kts 316°
2026-05-05 05:50 33.13199 -117.79931 18077 ft 390 kts 315°
2026-05-05 05:50 33.15288 -117.82015 18488 ft 393 kts 315°
2026-05-05 05:51 33.17372 -117.84128 18905 ft 394 kts 314°
2026-05-05 05:51 33.19461 -117.86259 19328 ft 396 kts 314°
2026-05-05 05:51 33.21582 -117.88378 19685 ft 399 kts 315°
2026-05-05 05:51 33.23741 -117.90484 20062 ft 402 kts 316°
2026-05-05 05:52 33.25917 -117.92592 20457 ft 404 kts 315°
2026-05-05 05:52 33.28102 -117.94710 20841 ft 405 kts 315°
2026-05-05 05:52 33.30294 -117.96841 21213 ft 407 kts 315°
2026-05-05 05:52 33.32498 -117.98988 21576 ft 409 kts 315°
2026-05-05 05:53 33.34708 -118.01147 21932 ft 411 kts 315°
2026-05-05 05:53 33.36927 -118.03319 22279 ft 413 kts 315°
2026-05-05 05:53 33.39157 -118.05503 22629 ft 416 kts 315°
2026-05-05 05:53 33.41409 -118.07712 22897 ft 420 kts 315°
2026-05-05 05:54 33.43674 -118.09933 23273 ft 421 kts 315°
2026-05-05 05:54 33.45938 -118.12155 23642 ft 422 kts 315°
2026-05-05 05:54 33.48211 -118.14387 23913 ft 424 kts 315°
2026-05-05 05:54 33.50496 -118.16634 24165 ft 426 kts 315°
2026-05-05 05:55 33.52790 -118.18890 24422 ft 428 kts 314°
2026-05-05 05:55 33.55094 -118.21158 24681 ft 430 kts 314°
2026-05-05 05:55 33.57423 -118.23422 24952 ft 433 kts 318°
2026-05-05 05:55 33.60064 -118.25268 25133 ft 446 kts 329°
2026-05-05 05:56 33.62919 -118.26768 25373 ft 449 kts 331°
2026-05-05 05:56 33.65803 -118.28237 25606 ft 451 kts 330°
2026-05-05 05:56 33.68684 -118.29741 25831 ft 453 kts 330°
2026-05-05 05:56 33.71560 -118.31299 26060 ft 454 kts 329°
2026-05-05 05:57 33.74436 -118.32887 26301 ft 456 kts 329°
2026-05-05 05:57 33.77323 -118.34481 26537 ft 458 kts 329°
2026-05-05 05:57 33.80261 -118.35999 26756 ft 461 kts 331°
2026-05-05 05:57 33.83234 -118.37472 26982 ft 463 kts 331°
2026-05-05 05:58 33.86219 -118.38940 27252 ft 463 kts 331°
2026-05-05 05:58 33.89203 -118.40421 27483 ft 465 kts 331°
2026-05-05 05:58 33.92197 -118.41925 27667 ft 467 kts 330°
2026-05-05 05:58 33.95160 -118.43423 27851 ft 469 kts 330°
2026-05-05 05:59 33.98211 -118.44970 28048 ft 471 kts 330°
2026-05-05 05:59 34.01264 -118.46311 28280 ft 479 kts 341°
2026-05-05 05:59 34.04580 -118.46971 28523 ft 485 kts 347°
2026-05-05 05:59 34.07942 -118.47438 28711 ft 488 kts 348°
2026-05-05 06:00 34.11327 -118.47864 28863 ft 490 kts 348°
2026-05-05 06:00 34.14722 -118.48299 29028 ft 492 kts 348°
2026-05-05 06:00 34.18135 -118.48763 29199 ft 494 kts 348°
2026-05-05 06:00 34.21544 -118.49255 29476 ft 493 kts 348°
2026-05-05 06:01 34.24926 -118.49761 29954 ft 488 kts 347°
2026-05-05 06:01 34.28284 -118.50275 30283 ft 485 kts 347°
2026-05-05 06:01 34.31635 -118.50795 30419 ft 487 kts 347°
2026-05-05 06:01 34.35008 -118.51322 30533 ft 489 kts 347°
2026-05-05 06:02 34.38384 -118.51849 30700 ft 490 kts 347°
2026-05-05 06:02 34.41688 -118.52362 30944 ft 489 kts 347°
2026-05-05 06:02 34.45050 -118.52882 31292 ft 485 kts 347°
2026-05-05 06:02 34.48383 -118.53396 31603 ft 483 kts 347°
2026-05-05 06:03 34.51719 -118.53913 31743 ft 485 kts 347°
2026-05-05 06:03 34.55073 -118.54434 31848 ft 487 kts 347°
2026-05-05 06:03 34.58435 -118.54958 32038 ft 487 kts 347°
2026-05-05 06:03 34.61796 -118.55479 32291 ft 486 kts 347°
2026-05-05 06:04 34.65146 -118.55999 32510 ft 485 kts 348°
2026-05-05 06:04 34.68495 -118.56518 32741 ft 485 kts 347°
2026-05-05 06:04 34.71837 -118.57038 32927 ft 485 kts 347°
2026-05-05 06:04 34.75187 -118.57561 33059 ft 486 kts 347°
2026-05-05 06:05 34.78542 -118.58086 33210 ft 486 kts 347°
2026-05-05 06:05 34.81896 -118.58609 33387 ft 486 kts 347°
2026-05-05 06:05 34.85256 -118.59134 33575 ft 486 kts 347°
2026-05-05 06:05 34.88609 -118.59658 33741 ft 487 kts 347°
2026-05-05 06:06 34.91973 -118.60184 33894 ft 487 kts 347°
2026-05-05 06:06 34.95330 -118.60710 34074 ft 487 kts 347°
2026-05-05 06:06 34.98687 -118.61262 34232 ft 485 kts 343°
2026-05-05 06:06 35.01838 -118.62509 34318 ft 470 kts 326°
2026-05-05 06:07 35.04512 -118.64685 34432 ft 458 kts 314°
2026-05-05 06:07 35.06954 -118.67185 34602 ft 458 kts 314°
2026-05-05 06:07 35.11818 -118.72252 34774 ft 461 kts 314°
2026-05-05 06:08 35.14267 -118.74778 34951 ft 460 kts 314°
2026-05-05 06:08 35.16717 -118.77285 35110 ft 459 kts 315°
2026-05-05 06:08 35.19171 -118.79785 35237 ft 459 kts 315°
2026-05-05 06:08 35.21628 -118.82280 35357 ft 460 kts 315°
2026-05-05 06:09 35.24087 -118.84777 35491 ft 459 kts 315°
2026-05-05 06:09 35.26548 -118.87278 35616 ft 460 kts 315°
2026-05-05 06:09 35.31440 -118.92258 35841 ft 460 kts 315°
2026-05-05 06:10 35.33898 -118.94763 35977 ft 460 kts 315°
2026-05-05 06:10 35.36358 -118.97275 35995 ft 462 kts 315°
2026-05-05 06:10 35.41309 -119.02337 36010 ft 465 kts 315°
2026-05-05 06:11 35.46303 -119.07447 35997 ft 470 kts 316°
2026-05-05 06:11 35.48951 -119.09825 35968 ft 478 kts 330°
2026-05-05 06:11 35.52085 -119.11271 36030 ft 484 kts 340°
2026-05-05 06:12 35.58571 -119.13613 36010 ft 488 kts 340°
2026-05-05 06:12 35.65089 -119.16003 36011 ft 489 kts 340°
2026-05-05 06:13 35.71598 -119.18452 36002 ft 489 kts 340°
2026-05-05 06:13 35.78086 -119.20923 36002 ft 487 kts 340°
2026-05-05 06:14 35.84548 -119.23393 36007 ft 485 kts 340°
2026-05-05 06:14 35.90985 -119.25861 36031 ft 483 kts 341°
2026-05-05 06:15 35.97391 -119.28313 36016 ft 481 kts 341°
2026-05-05 06:15 36.03769 -119.30755 36023 ft 479 kts 341°
2026-05-05 06:16 36.10120 -119.33193 36017 ft 477 kts 341°
2026-05-05 06:16 36.16445 -119.35626 36023 ft 476 kts 341°
2026-05-05 06:17 36.22760 -119.38060 36031 ft 474 kts 341°
2026-05-05 06:17 36.25257 -119.39023 36031 ft 474 kts 341°
2026-05-05 06:18 36.31548 -119.41454 36027 ft 474 kts 341°
2026-05-05 06:18 36.37865 -119.43898 36035 ft 477 kts 341°
2026-05-05 06:19 36.44207 -119.46356 36035 ft 478 kts 342°
2026-05-05 06:19 36.50546 -119.48817 36014 ft 477 kts 342°
2026-05-05 06:20 36.56869 -119.51277 36010 ft 475 kts 342°
2026-05-05 06:20 36.63163 -119.53730 36021 ft 473 kts 342°
2026-05-05 06:21 36.69415 -119.56172 36023 ft 469 kts 343°
2026-05-05 06:21 36.75586 -119.58581 36021 ft 467 kts 343°
2026-05-05 06:22 36.81768 -119.61001 36022 ft 464 kts 343°
2026-05-05 06:22 36.87914 -119.63415 36023 ft 463 kts 343°
2026-05-05 06:23 36.94050 -119.65827 36023 ft 461 kts 343°
2026-05-05 06:23 37.00170 -119.68235 36018 ft 461 kts 343°
2026-05-05 06:24 37.06284 -119.70645 36011 ft 461 kts 343°
2026-05-05 06:24 37.12403 -119.73061 36014 ft 461 kts 343°
2026-05-05 06:25 37.18529 -119.75485 36003 ft 461 kts 344°
2026-05-05 06:25 37.24647 -119.77909 36005 ft 461 kts 344°
2026-05-05 06:26 37.30765 -119.80338 36004 ft 461 kts 344°
2026-05-05 06:26 37.36877 -119.82768 36006 ft 460 kts 344°
2026-05-05 06:27 37.46011 -119.86409 36001 ft 458 kts 344°
2026-05-05 06:28 37.52072 -119.88829 36003 ft 457 kts 344°
2026-05-05 06:28 37.57102 -119.90841 36000 ft 455 kts 345°
2026-05-05 06:29 37.63136 -119.93259 36009 ft 454 kts 345°
2026-05-05 06:29 37.69159 -119.95675 35998 ft 454 kts 345°
2026-05-05 06:30 37.75166 -119.98091 35987 ft 453 kts 345°
2026-05-05 06:30 37.81165 -120.00507 35999 ft 452 kts 345°
2026-05-05 06:31 37.87156 -120.02921 35984 ft 451 kts 345°
2026-05-05 06:31 37.93130 -120.05334 35988 ft 451 kts 346°
2026-05-05 06:32 37.99065 -120.07737 36009 ft 451 kts 346°
2026-05-05 06:32 38.05046 -120.10161 36001 ft 451 kts 346°
2026-05-05 06:33 38.11025 -120.12598 35996 ft 451 kts 346°
2026-05-05 06:33 38.16995 -120.15025 36014 ft 450 kts 346°
2026-05-05 06:34 38.22953 -120.17447 36002 ft 450 kts 346°
2026-05-05 06:34 38.28909 -120.19876 35994 ft 449 kts 346°
2026-05-05 06:35 38.34852 -120.22306 36012 ft 448 kts 346°
2026-05-05 06:35 38.40788 -120.24737 36014 ft 448 kts 346°
2026-05-05 06:36 38.46719 -120.27171 36009 ft 448 kts 346°
2026-05-05 06:36 38.52646 -120.29608 36010 ft 447 kts 347°
2026-05-05 06:37 38.58529 -120.32029 36018 ft 447 kts 346°
2026-05-05 06:37 38.64487 -120.34488 36022 ft 447 kts 346°
2026-05-05 06:38 38.70360 -120.36913 36031 ft 447 kts 346°
2026-05-05 06:38 38.76275 -120.39360 36029 ft 447 kts 346°
2026-05-05 06:39 38.82190 -120.41813 36033 ft 447 kts 346°
2026-05-05 06:39 38.88094 -120.44265 36030 ft 445 kts 347°
2026-05-05 06:40 38.93989 -120.46718 36018 ft 445 kts 347°
2026-05-05 06:40 38.99876 -120.49172 36012 ft 445 kts 347°
2026-05-05 06:41 39.05748 -120.51624 36014 ft 443 kts 347°
2026-05-05 06:41 39.11607 -120.54068 36022 ft 442 kts 347°
2026-05-05 06:42 39.17453 -120.56519 36024 ft 442 kts 347°
2026-05-05 06:42 39.23294 -120.58974 36020 ft 441 kts 347°
2026-05-05 06:43 39.29128 -120.61428 36031 ft 441 kts 347°
2026-05-05 06:43 39.34966 -120.63886 36039 ft 441 kts 347°
2026-05-05 06:44 39.40802 -120.66348 35994 ft 441 kts 348°
2026-05-05 06:44 39.46637 -120.68815 36001 ft 441 kts 348°
2026-05-05 06:45 39.52479 -120.71287 35998 ft 442 kts 348°
2026-05-05 06:45 39.58320 -120.73766 35979 ft 442 kts 348°
2026-05-05 06:46 39.64148 -120.76245 35989 ft 439 kts 348°
2026-05-05 06:46 39.69946 -120.78729 35999 ft 440 kts 348°
2026-05-05 06:47 39.75760 -120.81201 35984 ft 440 kts 348°
2026-05-05 06:47 39.81577 -120.83676 35987 ft 440 kts 348°
2026-05-05 06:48 39.87401 -120.86156 35988 ft 440 kts 348°
2026-05-05 06:48 39.93223 -120.88656 35978 ft 441 kts 348°
2026-05-05 06:49 39.99046 -120.91162 35974 ft 441 kts 348°
2026-05-05 06:49 40.04867 -120.93669 35955 ft 440 kts 348°
2026-05-05 06:50 40.10678 -120.96172 35944 ft 440 kts 348°
2026-05-05 06:50 40.16479 -120.98677 35942 ft 440 kts 348°
2026-05-05 06:51 40.22291 -121.01192 35904 ft 440 kts 348°
2026-05-05 06:51 40.28090 -121.03706 35932 ft 439 kts 348°
2026-05-05 06:52 40.33891 -121.06224 35931 ft 439 kts 348°
2026-05-05 06:52 40.39687 -121.08746 35940 ft 438 kts 348°
2026-05-05 06:53 40.45478 -121.11263 35943 ft 438 kts 348°
2026-05-05 06:53 40.51249 -121.13654 35939 ft 438 kts 349°
2026-05-05 06:54 40.57055 -121.16018 35918 ft 435 kts 349°
2026-05-05 06:54 40.62822 -121.18380 35939 ft 433 kts 349°
2026-05-05 06:55 40.68572 -121.20748 35935 ft 432 kts 349°
2026-05-05 06:55 40.74303 -121.23117 35925 ft 431 kts 349°
2026-05-05 06:56 40.80018 -121.25485 35934 ft 430 kts 349°
2026-05-05 06:56 40.85721 -121.27852 35955 ft 430 kts 349°
2026-05-05 06:57 40.91434 -121.30227 35938 ft 431 kts 349°
2026-05-05 06:57 40.97153 -121.32608 35959 ft 432 kts 349°
2026-05-05 06:58 41.02890 -121.35002 35954 ft 433 kts 349°
2026-05-05 06:58 41.08637 -121.37405 35943 ft 434 kts 349°
2026-05-05 06:59 41.14398 -121.39818 35965 ft 435 kts 349°
2026-05-05 06:59 41.20182 -121.42244 35983 ft 437 kts 349°
2026-05-05 07:00 41.25996 -121.44688 35966 ft 439 kts 349°
2026-05-05 07:00 41.31826 -121.47146 35973 ft 440 kts 349°
2026-05-05 07:01 41.37675 -121.49612 35966 ft 441 kts 349°
2026-05-05 07:01 41.43522 -121.52086 35954 ft 440 kts 349°
2026-05-05 07:02 41.49350 -121.54553 35927 ft 439 kts 349°
2026-05-05 07:02 41.55121 -121.57004 35931 ft 438 kts 349°
2026-05-05 07:03 41.60920 -121.59472 35919 ft 437 kts 349°
2026-05-05 07:03 41.66701 -121.61934 35904 ft 436 kts 349°
2026-05-05 07:04 41.72472 -121.64397 35905 ft 435 kts 349°
2026-05-05 07:04 41.78234 -121.66861 35894 ft 434 kts 349°
2026-05-05 07:05 41.83994 -121.69328 35907 ft 435 kts 349°
2026-05-05 07:05 41.89751 -121.71798 35914 ft 434 kts 349°
2026-05-05 07:06 41.95500 -121.74271 35924 ft 434 kts 349°
2026-05-05 07:06 42.01242 -121.76746 35946 ft 433 kts 349°
2026-05-05 07:07 42.06979 -121.79222 35960 ft 433 kts 349°
2026-05-05 07:07 42.12713 -121.81702 35964 ft 433 kts 349°
2026-05-05 07:08 42.18444 -121.84185 35960 ft 433 kts 349°
2026-05-05 07:08 42.24180 -121.86675 35884 ft 433 kts 349°
2026-05-05 07:09 42.29914 -121.89168 35858 ft 433 kts 349°
2026-05-05 07:09 42.35633 -121.91663 35889 ft 432 kts 349°
2026-05-05 07:10 42.41345 -121.94157 35893 ft 431 kts 349°
2026-05-05 07:10 42.47047 -121.96652 35883 ft 430 kts 349°
2026-05-05 07:11 42.52733 -121.99144 35882 ft 429 kts 349°
2026-05-05 07:11 42.58403 -122.01634 35903 ft 428 kts 349°
2026-05-05 07:12 42.64065 -122.04125 35905 ft 427 kts 349°
2026-05-05 07:12 42.69722 -122.06619 35898 ft 427 kts 349°
2026-05-05 07:13 42.75370 -122.09113 35912 ft 427 kts 349°
2026-05-05 07:13 42.81025 -122.11615 35925 ft 428 kts 349°
2026-05-05 07:14 42.86697 -122.14131 35904 ft 429 kts 349°
2026-05-05 07:14 42.92333 -122.16637 35905 ft 429 kts 348°
2026-05-05 07:15 42.98000 -122.19281 35933 ft 431 kts 348°
2026-05-05 07:15 43.03668 -122.21953 35917 ft 431 kts 348°
2026-05-05 07:16 43.09331 -122.24621 35923 ft 431 kts 348°
2026-05-05 07:16 43.14993 -122.27290 35941 ft 431 kts 348°
2026-05-05 07:17 43.20661 -122.29957 35936 ft 430 kts 348°
2026-05-05 07:17 43.25402 -122.32202 35969 ft 430 kts 348°
2026-05-05 07:18 43.31056 -122.34885 35956 ft 430 kts 348°
2026-05-05 07:18 43.36665 -122.37560 35976 ft 428 kts 348°
2026-05-05 07:19 43.42304 -122.40226 35989 ft 428 kts 347°
2026-05-05 07:19 43.45076 -122.41626 35964 ft 417 kts 347°
2026-05-05 07:19 43.47769 -122.42935 35812 ft 406 kts 348°
2026-05-05 07:19 43.50416 -122.44168 35467 ft 397 kts 348°
2026-05-05 07:20 43.53030 -122.45387 34982 ft 396 kts 348°
2026-05-05 07:20 43.55633 -122.46618 34581 ft 395 kts 348°
2026-05-05 07:20 43.58236 -122.47856 34100 ft 396 kts 347°
2026-05-05 07:20 43.60840 -122.49102 33592 ft 396 kts 347°
2026-05-05 07:21 43.63440 -122.50348 33105 ft 396 kts 347°
2026-05-05 07:21 43.66037 -122.51596 32627 ft 395 kts 347°
2026-05-05 07:21 43.68631 -122.52845 32163 ft 395 kts 347°
2026-05-05 07:21 43.71222 -122.54092 31699 ft 394 kts 347°
2026-05-05 07:22 43.73817 -122.55336 31263 ft 396 kts 347°
2026-05-05 07:22 43.76412 -122.56586 30772 ft 393 kts 346°
2026-05-05 07:22 43.78982 -122.57829 30330 ft 390 kts 346°
2026-05-05 07:22 43.81533 -122.59064 29848 ft 387 kts 346°
2026-05-05 07:23 43.84067 -122.60292 29349 ft 384 kts 346°
2026-05-05 07:23 43.86575 -122.61506 28886 ft 380 kts 346°
2026-05-05 07:23 43.89053 -122.62709 28439 ft 376 kts 346°
2026-05-05 07:23 43.91516 -122.63910 27988 ft 373 kts 346°
2026-05-05 07:24 43.93940 -122.65090 27560 ft 366 kts 345°
2026-05-05 07:24 43.96319 -122.66247 27126 ft 359 kts 345°
2026-05-05 07:24 43.98657 -122.67382 26706 ft 353 kts 346°
2026-05-05 07:24 44.00956 -122.68497 26301 ft 347 kts 345°
2026-05-05 07:25 44.03219 -122.69597 25896 ft 342 kts 345°
2026-05-05 07:25 44.05443 -122.70680 25507 ft 336 kts 345°
2026-05-05 07:25 44.07639 -122.71749 25119 ft 332 kts 345°
2026-05-05 07:25 44.09806 -122.72806 24730 ft 328 kts 345°
2026-05-05 07:26 44.11941 -122.73850 24355 ft 323 kts 345°
2026-05-05 07:26 44.14068 -122.74764 23944 ft 317 kts 352°
2026-05-05 07:26 44.16232 -122.75161 23443 ft 313 kts
2026-05-05 07:26 44.18400 -122.75045 22989 ft 309 kts
2026-05-05 07:27 44.20531 -122.74829 22553 ft 305 kts
2026-05-05 07:27 44.22633 -122.74609 22184 ft 301 kts
2026-05-05 07:27 44.24711 -122.74393 21831 ft 298 kts
2026-05-05 07:27 44.26791 -122.74179 21482 ft 303 kts
2026-05-05 07:28 44.28913 -122.73963 21119 ft 305 kts
2026-05-05 07:28 44.31017 -122.73752 20758 ft 301 kts
2026-05-05 07:28 44.33087 -122.73547 20407 ft 296 kts
2026-05-05 07:28 44.35126 -122.73344 20059 ft 291 kts
2026-05-05 07:29 44.37133 -122.73146 19724 ft 287 kts
2026-05-05 07:29 44.39132 -122.72948 19395 ft 292 kts
2026-05-05 07:29 44.41167 -122.72743 19062 ft 303 kts
2026-05-05 07:29 44.43302 -122.72529 18692 ft 309 kts
2026-05-05 07:30 44.45435 -122.72319 18325 ft 305 kts
2026-05-05 07:30 44.49607 -122.71906 17531 ft 296 kts
2026-05-05 07:30 44.51644 -122.71703 17158 ft 291 kts
2026-05-05 07:31 44.53648 -122.71504 16800 ft 287 kts
2026-05-05 07:31 44.55623 -122.71308 16451 ft 282 kts
2026-05-05 07:31 44.57572 -122.71114 16125 ft 280 kts
2026-05-05 07:31 44.59508 -122.70921 15875 ft 280 kts
2026-05-05 07:32 44.61498 -122.70721 15665 ft 292 kts
2026-05-05 07:32 44.63483 -122.70523 15594 ft 278 kts
2026-05-05 07:32 44.65352 -122.70337 15466 ft 261 kts
2026-05-05 07:32 44.67105 -122.70162 15345 ft 244 kts
2026-05-05 07:33 44.68740 -122.69998 15250 ft 227 kts
2026-05-05 07:33 44.70336 -122.69836 14655 ft 233 kts
2026-05-05 07:33 44.71852 -122.69682 14413 ft 224 kts
2026-05-05 07:33 44.73371 -122.69528 14220 ft 214 kts
2026-05-05 07:34 44.74866 -122.69377 14062 ft 223 kts
2026-05-05 07:34 44.76418 -122.69220 14091 ft 222 kts
2026-05-05 07:34 44.77971 -122.69064 13716 ft 227 kts
2026-05-05 07:34 44.79553 -122.68904 13530 ft 233 kts
2026-05-05 07:35 44.81165 -122.68742 13261 ft 229 kts
2026-05-05 07:35 44.82735 -122.68585 13059 ft 223 kts
2026-05-05 07:35 44.84268 -122.68432 12870 ft 219 kts
2026-05-05 07:35 44.85809 -122.68278 12638 ft 231 kts
2026-05-05 07:36 44.87576 -122.68106 12197 ft 281 kts
2026-05-05 07:36 44.89600 -122.67893 12020 ft 298 kts
2026-05-05 07:36 44.91685 -122.67681 11766 ft 300 kts
2026-05-05 07:36 44.93756 -122.67473 11511 ft 297 kts
2026-05-05 07:37 44.95801 -122.67269 11255 ft 292 kts
2026-05-05 07:37 44.97813 -122.67066 11012 ft 287 kts
2026-05-05 07:37 44.99795 -122.66867 10767 ft 284 kts
2026-05-05 07:37 45.01766 -122.66668 10526 ft 283 kts
2026-05-05 07:38 45.03728 -122.66469 10299 ft 282 kts
2026-05-05 07:38 45.05680 -122.66271 10073 ft 282 kts
2026-05-05 07:38 45.07645 -122.66070 9828 ft 284 kts
2026-05-05 07:38 45.09613 -122.65869 9571 ft 282 kts
2026-05-05 07:39 45.11552 -122.65671 9312 ft 278 kts
2026-05-05 07:39 45.13467 -122.65476 9050 ft 274 kts
2026-05-05 07:39 45.15357 -122.65283 8784 ft 270 kts
2026-05-05 07:39 45.17219 -122.65092 8536 ft 267 kts
2026-05-05 07:40 45.19059 -122.64904 8290 ft 264 kts
2026-05-05 07:40 45.20879 -122.64718 8044 ft 261 kts
2026-05-05 07:40 45.22680 -122.64534 7801 ft 258 kts
2026-05-05 07:40 45.24461 -122.64317 7548 ft 256 kts 11°
2026-05-05 07:41 45.26074 -122.63315 7307 ft 254 kts 31°
2026-05-05 07:41 45.27555 -122.61971 7071 ft 252 kts 31°
2026-05-05 07:41 45.29035 -122.60636 6829 ft 251 kts 30°
2026-05-05 07:41 45.30501 -122.59314 6598 ft 249 kts 30°
2026-05-05 07:42 45.31936 -122.58020 6482 ft 236 kts 30°
2026-05-05 07:42 45.33285 -122.56802 6378 ft 223 kts 30°
2026-05-05 07:42 45.34554 -122.55659 6266 ft 209 kts 30°
2026-05-05 07:42 45.35758 -122.54575 6032 ft 203 kts 30°
2026-05-05 07:43 45.36938 -122.53514 5766 ft 200 kts 30°
2026-05-05 07:43 45.38116 -122.52455 5508 ft 204 kts 30°
2026-05-05 07:43 45.39359 -122.51340 5339 ft 220 kts 30°
2026-05-05 07:43 45.40673 -122.50154 5054 ft 223 kts 30°
2026-05-05 07:44 45.42023 -122.48938 4885 ft 240 kts 30°
2026-05-05 07:44 45.43264 -122.47341 4912 ft 246 kts 58°
2026-05-05 07:44 45.43718 -122.44996 4974 ft 253 kts 92°
2026-05-05 07:44 45.43199 -122.42584 5007 ft 259 kts 117°
2026-05-05 07:45 45.42330 -122.40374 4984 ft 251 kts 118°
2026-05-05 07:45 45.41489 -122.38282 4962 ft 238 kts 118°
2026-05-05 07:45 45.40970 -122.36094 4727 ft 234 kts 86°
2026-05-05 07:45 45.41464 -122.33962 4559 ft 226 kts 51°
2026-05-05 07:46 45.42589 -122.32530 4387 ft 212 kts 26°
2026-05-05 07:46 45.43937 -122.31823 4229 ft 202 kts 12°
2026-05-05 07:46 45.45314 -122.31319 3988 ft 207 kts
2026-05-05 07:46 45.46709 -122.31497 3799 ft 204 kts 327°
2026-05-05 07:47 45.47677 -122.32901 3774 ft 201 kts 305°
2026-05-05 07:47 45.48523 -122.34502 3957 ft 206 kts 306°
2026-05-05 07:47 45.49428 -122.36276 3504 ft 230 kts 302°
2026-05-05 07:47 45.50246 -122.38260 3183 ft 234 kts 297°
2026-05-05 07:48 45.50973 -122.40142 2930 ft 199 kts 297°
2026-05-05 07:48 45.51620 -122.41754 2658 ft 176 kts 297°
2026-05-05 07:48 45.52195 -122.43170 2449 ft 155 kts 297°
2026-05-05 07:48 45.52698 -122.44422 2225 ft 137 kts 294°
2026-05-05 07:49 45.53184 -122.45704 2030 ft 157 kts 295°
2026-05-05 07:49 45.53712 -122.47056 1830 ft 156 kts 297°
2026-05-05 07:49 45.54274 -122.48431 1610 ft 168 kts 298°
2026-05-05 07:49 45.54813 -122.49888 1419 ft 160 kts 293°
2026-05-05 07:50 45.55286 -122.51273 1267 ft 149 kts 294°
2026-05-05 07:50 45.55776 -122.52568 1078 ft 150 kts 298°
2026-05-05 07:50 45.56291 -122.53858 843 ft 149 kts 299°
2026-05-05 07:50 45.56772 -122.55114 653 ft 142 kts 300°
2026-05-05 07:51 45.57267 -122.56379 432 ft 148 kts 300°
2026-05-05 07:51 45.57761 -122.57628 233 ft 140 kts 300°
2026-05-05 07:51 45.58223 -122.58817 61 ft 134 kts 300°
2026-05-05 07:51 45.58634 -122.59873 29 ft 105 kts 298°
2026-05-05 07:52 45.58912 -122.60591 27 ft 60 kts 299°
2026-05-05 07:52 45.59063 -122.60976 28 ft 40 kts 298°
2026-05-05 07:52 45.59181 -122.61277 28 ft 26 kts 307°
2026-05-05 07:52 45.59307 -122.61314 27 ft 0 kts 28°
2026-05-05 07:53 45.59338 -122.61275 27 ft 15 kts 57°
2026-05-05 07:54 45.59313 -122.61133 27 ft 15 kts 118°
2026-05-05 07:54 45.59263 -122.61002 27 ft 15 kts 118°
2026-05-05 07:54 45.59214 -122.60875 27 ft 15 kts 119°
2026-05-05 07:54 45.59162 -122.60743 27 ft 16 kts 120°
2026-05-05 07:55 45.59142 -122.60592 27 ft 16 kts 91°
2026-05-05 07:55 45.59141 -122.60435 28 ft 16 kts 90°
2026-05-05 07:55 45.59140 -122.60268 27 ft 17 kts 90°
2026-05-05 07:55 45.59140 -122.60094 27 ft 17 kts 90°
2026-05-05 07:56 45.59134 -122.59926 27 ft 17 kts 106°
2026-05-05 07:56 45.59083 -122.59782 28 ft 16 kts 118°
2026-05-05 07:56 45.59030 -122.59646 28 ft 15 kts 119°
2026-05-05 07:56 45.58997 -122.59562 28 ft 8 kts 119°
2026-05-05 07:57 45.58972 -122.59504 28 ft 3 kts 134°
2026-05-05 07:57 45.58959 -122.59499 28 ft 4 kts 181°
2026-05-05 07:57 45.58931 -122.59513 28 ft 4 kts 205°
2026-05-05 07:57 45.58910 -122.59529 28 ft 2 kts 208°
2026-05-05 07:58 45.58906 -122.59532 28 ft 0 kts 208°